Accueil
METAR-TAF:

METAR-TAF

Aéroports :

Arnhem, Pays-Bas

latitude: 52-04N, longitude: 005-53E, altitude: 48 m

Observation

Le bulletin a été fait il y a 13 minutes, à 16:55 UTC
Vent 5 kt de ouest/sud-ouest, variant entre sud et ouest/nord-ouest
Température 17°C
Humidité 94%
Pression 1009 hPa
Visibilité 10 km ou plus
Quelques nuages à une hauteur de 3100 ft
Nuages épars à une hauteur de 5000 ft
Nuages fragmentés à une hauteur de 9100 ft

METAR: EHDL 281655Z AUTO 24005KT 190V300 9999 FEW031 SCT050 BKN091 17/16 Q1009 BLU

Heure: 19:08 (17:08 UTC)


TAF: absent

Observations et prévisions météorologiques de plus de 4000 aéroports (messages METAR et TAF).

Les stations disponibles sont représentées par des disques jaunes et rouges sur la carte.

Passer la souris dessus pour voir le nom de la station.

Cliquer dessus pour voir les observations et prévisions météorologiques.

Pour changer de carte: cliquez sur les boutons verts avec une croix noire pour zoomer, sur le bouton vert avec un tiret pour effectuer un zoom arrière, ou sur les flèches vertes pour les cartes adjacentes.


METAR-TAF: